Showing default

QIANFAN-22, 61555

Orbit data source: Space-Track

QIANFAN-22, 61555 is a Chinese payload satellite in LEO that was launched on Tue, 15 Oct 2024 UTC via a CHANG ZHENG 6A launch vehicle from the Taiyaun Space Center, China (TSC). Payload-class satellites include a variety of spacecraft equipped with specific instruments for various scientific and technological missions. These include communications satellites like Starlink; space stations such as the ISS; scientific satellites like the Hubble; Earth observation satellites from companies like Planet Labs, Umbra, and HawkEye 360; GPS; miniature CubeSats for education and research; and military/defense satellites.

Loading next visibility...
Identifier
61555, 2024-185D
Orbit
LEO
Last TLE update
6 hours ago
Origin
Manufacturer
GESIH/SECM
Mission
Operational Commercial Communications
Bus & Motor
QIANFAN, Unknown motor
Mass
267 kg wet, ~267 kg dry
Launch date (UTC)
2024-10-15 (9 months ago)
Launch vehicle
CHANG ZHENG 6A
Launch site
Taiyaun Space Center, China (TSC)
Object type
Payload
Rocket body
Debris
Shape & HBR
Box + 1 Pan, 10 m
Radar Cross Section
13.200 m², Large (>1 m²)

Expand to show TLE details & history

TLE from 6 hours ago
0 QIANFAN-22
1 61555U 24185D   25190.08517576  .00000199  00000-0  16074-3 0  9998
2 61555  88.9821  96.4217 0008869 105.5815 254.6336 13.86227562 47243
Epoch: 2025-07-09T02:02Z
TLE epoch observation values (Epoch: 2025-07-09T02:02:39.185Z)
Latitude
Longitude
138.48755°
Altitude
946.612 km
Speed
7.378 km/s
True Right ascension
06h 25m 41s
True Declination
0° 00' 00"
Sunlit
Object was in daylight at epoch
Visualization orbit readout
Latitude
-37.80251°
Longitude
-40.7552°
Altitude
958.84 km
Speed
7.37 km/s
Apparent Right ascension
14h 38m 54s
Apparent Declination
-71° 28' 15"
Sunlit
Object is in full shadow
Visualization observer readout
Local Sidereal Time
20:26:50
Azimuth
203.269° SW
Elevation
-36.553°
Doppler factor
1
Orbital elements
Apogee altitude
945.371 km
Perigee altitude
932.392 km
Semi-major axis
7,317.018 km
Eccentricity
0.00089
Inclination
88.9821°
RAAN
96.4217°
Arg. of periapsis
105.5815°
True anomaly
Unknown
Mean anomaly
254.6336°
Eccentric anomaly
Unknown
Mean motion
3.4677 °/min
Orbital period
103.82 mins
BSTAR
0.00016074
Loading maneuver chart data...
Loading SW <> Apogee altitude chart data...
Loading historical data...
Loading historical data...
Loading historical data...
Loading historical data...
Loading historical data...
Loading historical data...
Loading historical data...

QIANFAN-22 Visibility forecast

Observer location: undefined°, undefined°

Span
Click to sort rows by Start time (UTC) header in descending order
Start Az.
Max El. time (UTC)
Max El. Az.
Max El.
End time (UTC)
End Az.
11 mins2025-07-09 17:44:12.358Z157.971° S2025-07-09 17:50:12.358Z66.894° ENE38.159°2025-07-09 17:55:12.358Z9.794° NNE
7 mins2025-07-09 19:31:12.358Z247.328° WSW2025-07-09 19:34:12.358Z284.847° WNW19.619°2025-07-09 19:38:12.358Z327.753° NNW
6 mins2025-07-10 04:39:12.358Z49.131° ENE2025-07-10 04:42:12.358Z83.54° E16.175°2025-07-10 04:45:12.358Z114.794° SE
10 mins2025-07-10 06:21:12.358Z352.805° N2025-07-10 06:26:12.358Z265.488° W42.132°2025-07-10 06:31:12.358Z195.686° SSW
|